Location: Recife
(8.0585°S, 34.8848°W)
Time: 06:09:48
(UTC-03:00)

Vanguard 1 - Pass Details

Date: 23 April 2026
Orbit: 654 x 3817 km, 34.2° (Epoch: 13 May)

Event Time Altitude Azimuth Distance (km) Brightness Sun altitude
Rises 16:37:16 0° 237° (WSW) 4,183 14.0 8.0°
Reaches altitude 10° 16:39:32 10° 238° (WSW) 3,483 13.7 7.5°
Maximum altitude 16:48:51 81° 324° (NW) 2,117 12.0 5.2°
Drops below altitude 10° 17:06:39 10° 50° (NE) 6,203 13.8 0.9°
Sets 17:12:18 0° 51° (NE) 7,561 14.2 -0.4°
